Location: Bailleul
(50.3375°N, 2.8513°E)
Time: 09:19:49
(UTC+00:00)

DNEPR-1 R/B - Pass Details

Date: 16 June 2021
Orbit: 588 x 1334 km, 64.6° (Epoch: 26 July)

Event Time Altitude Azimuth Distance (km) Brightness Sun altitude
Rises 20:55:02 0° 320° (NW) 2,883 9.8 -6.8°
Reaches altitude 10° 20:57:26 10° 328° (NNW) 1,941 7.8 -7.1°
Maximum altitude 21:01:28 40° 39° (NE) 884 4.5 -7.5°
Drops below altitude 10° 21:05:32 10° 110° (ESE) 1,957 5.6 -7.9°
Enters shadow 21:06:17 - 113° (ESE) 2,245 5.9 -7.9°
